Regional Weather Roundup
Issued by NWS

Home | Current Version | Previous Version | Graphics & Text | Print | Product List | Glossary Off
Versions: 1 2 3 4 5 6 7 8 9 10 11 12 13 14 15 16 17 18 19 20 21 22 23 24 25 26 27 28 29 30 31 32 33 34 35 36 37 38 39 40 41 42 43 44 45 46 47 48 49 50

000
ASUS45 KCYS 311510
RWRWY

WYOMING REGIONAL WEATHER ROUNDUP
NATIONAL WEATHER SERVICE CHEYENNE WY
900 AM MDT TUE MAY 31 2016

NOTE:  "FAIR" INDICATES FEW OR NO CLOUDS BELOW 12,000 FEET
WITH NO SIGNIFICANT WEATHER AND/OR OBSTRUCTIONS TO VISIBILITY.

WYZ001-311600-
YELLOWSTONE NATIONAL PARK

CITY           SKY/WX    TMP DP  RH WIND       PRES   REMARKS
LK YELLOWSTONE   N/A     41  22  46 VRB7      30.28S
W YELLOWSTONE  NOT AVBL

$$
WYZ002>013-054>058-071-098>099-311600-
NORTHERN WYOMING

CITY           SKY/WX    TMP DP  RH WIND       PRES   REMARKS
JACKSON        SUNNY     46  32  57 N9        30.22S
CODY           FAIR      48  36  61 N9        30.19S
GREYBULL       FAIR      57  29  34 N26G35    30.15F
WORLAND        FAIR      57  32  38 N15G24    30.17S
SHERIDAN       CLOUDY    55  34  45 NW25G35   30.12S
BUFFALO        FAIR      54  33  45 N26G38    30.10S
GILLETTE       FAIR      52  34  50 W24G35    30.05S
HULETT         LGT RAIN  46  36  66 W14G24    30.04S
NEWCASTLE      FAIR      52  30  43 NW23G32   30.10S

$$
WYZ014>020-022>026-101>103-311600-
CENTRAL WYOMING

CITY           SKY/WX    TMP DP  RH WIND       PRES   REMARKS
BIG PINEY      FAIR      49  38  65 CALM      30.21S
PINEDALE       FAIR      45  34  65 CALM      30.22S
DUBOIS         FAIR      48  28  46 NE5       30.20S
LANDER         CLOUDY    52  38  58 E5        30.17S
RIVERTON       FAIR      53  33  46 NE12      30.19S
CASPER         PTSUNNY   47  38  71 SW5       30.17R
DOUGLAS          N/A    N/A N/A N/A MISG      30.15S

$$
WYZ021-027>030-104>119-311600-
SOUTHERN WYOMING

CITY           SKY/WX    TMP DP  RH WIND       PRES   REMARKS
EVANSTON       FAIR      52  40  63 NW3       30.19S
KEMMERER         N/A     52  32  46 CALM      30.20S
FORT BRIDGER   SUNNY     50  34  53 N3        30.22S
ROCK SPRINGS   FAIR      47  40  76 S3        30.19S
DIXON          FAIR      50  40  69 W3        30.20S
RAWLINS        FAIR      51  39  63 E6        30.18S
SARATOGA       FAIR      48  41  76 N9        30.18S
LARAMIE        FAIR      48  38  68 S9        30.16S
CHEYENNE       PTSUNNY   50  34  54 S8        30.16F
TORRINGTON     PTSUNNY   53  46  77 W6        30.12S
PINE BLUFFS    CLOUDY    50  36  57 CALM      30.16S

$$



USA.gov is the U.S. government's official web portal to all federal, state and local government web resources and services.